QPF
0.00 0.00 0.00 0.00 0.00 0.00 0.00 0.00 0.00 0.00 0.00 0.00 0.00 0.00 0.00 0.00 0.00 0.00 0.01 0.16 0.12 0.03 0.03 0.16 0.10 0.10 0.01 0.00 0.00 0.00 0.00 0.00 0.01
0.00 0.00 0.00 0.00 0.00 0.00 0.00 0.00 0.00 0.00 0.00 0.00 0.00 0.00 0.00 0.00 0.00 0.01 0.02 0.04 0.07 0.04 0.09 0.03 0.32 0.24 0.10 0.00 0.00 0.00 0.00 0.00 0.01
0.00 0.00 0.00 0.00 0.00 0.00 0.00 0.00 0.00 0.00 0.00 0.00 0.00 0.00 0.00 0.00 0.00 0.02 0.08 0.06 0.03 0.07 0.10 0.04 0.31 0.04 0.01 0.00 0.00 0.00 0.00 0.00 0.00
0.00 0.00 0.00 0.00 0.00 0.00 0.00 0.00 0.00 0.00 0.00 0.00 0.00 0.00 0.00 0.00 0.00 0.01 0.04 0.01 0.00 0.02 0.03 0.02 0.02 0.01 0.00 0.00 0.00 0.00 0.00 0.00 0.04
0.00 0.00 0.00 0.00 0.00 0.00 0.00 0.00 0.00 0.00 0.00 0.00 0.00 0.00 0.00 0.00 0.00 0.00 0.00 0.00 0.00 0.00 0.00 0.00 0.00 0.00 0.00 0.00 0.00 0.00 0.00 0.00 0.06
0.00 0.00 0.00 0.00 0.00 0.00 0.00 0.00 0.00 0.00 0.00 0.00 0.00 0.00 0.00 0.00 0.00 0.00 0.00 0.00 0.00 0.00 0.00 0.00 0.00 0.00 0.00 0.00 0.00 0.00 0.00 0.00 0.02
0.00 0.00 0.00 0.00 0.00 0.00 0.00 0.00 0.00 0.00 0.00 0.00 0.00 0.00 0.00 0.00 0.00 0.00 0.00 0.00 0.00 0.00 0.00 0.00 0.00 0.00 0.00 0.00 0.00 0.00 0.00 0.00 0.00
0.00 0.00 0.00 0.00 0.00 0.00 0.00 0.00 0.00 0.00 0.00 0.00 0.00 0.00 0.00 0.00 0.00 0.00 0.00 0.00 0.00 0.00 0.00 0.00 0.00 0.00 0.00 0.00 0.00 0.00 0.00 0.00 0.00
0.00 0.00 0.00 0.00 0.00 0.00 0.00 0.00 0.00 0.00 0.00 0.00 0.00 0.00 0.00 0.00 0.00 0.00 0.00 0.00 0.00 0.00 0.00 0.00 0.00 0.00 0.00 0.00 0.00 0.00 0.00 0.00 0.00
0.00 0.00 0.00 0.00 0.00 0.00 0.00 0.00 0.00 0.00 0.00 0.00 0.00 0.00 0.00 0.00 0.00 0.00 0.00 0.00 0.00 0.00 0.00 0.00 0.00 0.00 0.00 0.00 0.00 0.00 0.00 0.00 0.00
0.00 0.00 0.00 0.00 0.00 0.00 0.00 0.00 0.00 0.00 0.00 0.00 0.00 0.00 0.00 0.00 0.00 0.00 0.00 0.00 0.00 0.00 0.00 0.00 0.00 0.00 0.00 0.00 0.00 0.00 0.00 0.00 0.00
0.00 0.00 0.00 0.00 0.00 0.00 0.00 0.00 0.00 0.00 0.00 0.00 0.00 0.00 0.00 0.00 0.00 0.00 0.00 0.00 0.00 0.00 0.00 0.00 0.00 0.00 0.00 0.00 0.00 0.00 0.00 0.00 0.00
0.00 0.00 0.00 0.00 0.00 0.00 0.00 0.00 0.00 0.00 0.00 0.00 0.00 0.00 0.00 0.00 0.00 0.00 0.00 0.00 0.00 0.00 0.01 0.04 0.09 0.07 0.08 0.07 0.00 0.02 0.02 0.00 0.00
0.00 0.00 0.00 0.00 0.00 0.00 0.00 0.00 0.00 0.00 0.00 0.00 0.00 0.00 0.00 0.00 0.00 0.00 0.00 0.01 0.01 0.10 0.25 0.27 0.31 0.35 0.39 0.29 0.13 0.09 0.02 0.00 0.00
0.00 0.00 0.00 0.00 0.00 0.00 0.00 0.00 0.00 0.00 0.03 0.01 0.00 0.00 0.00 0.00 0.01 0.02 0.02 0.07 0.36 0.56 0.55 0.47 0.46 0.42 0.36 0.35 0.30 0.13 0.04 0.00 0.00
0.00 0.00 0.00 0.00 0.00 0.00 0.00 0.00 0.00 0.00 0.00 0.00 0.00 0.01 0.01 0.02 0.07 0.16 0.24 0.35 0.47 0.67 0.67 0.42 0.26 0.32 0.40 0.53 0.53 0.41 0.21 0.08 0.02
0.00 0.00 0.00 0.00 0.00 0.00 0.00 0.00 0.00 0.00 0.00 0.01 0.02 0.01 0.01 0.02 0.01 0.06 0.14 0.15 0.26 0.37 0.17 0.11 0.07 0.33 0.56 0.52 0.42 0.41 0.36 0.21 0.15
0.00 0.00 0.00 0.00 0.00 0.00 0.00 0.00 0.00 0.00 0.00 0.00 0.00 0.00 0.00 0.01 0.00 0.00 0.02 0.05 0.09 0.12 0.08 0.05 0.02 0.02 0.08 0.09 0.05 0.06 0.05 0.08 0.12
0.00 0.00 0.00 0.00 0.00 0.00 0.00 0.00 0.00 0.00 0.00 0.00 0.00 0.00 0.00 0.00 0.00 0.00 0.01 0.00 0.00 0.00 0.00 0.00 0.01 0.01 0.01 0.01 0.00 0.00 0.05 0.09 0.13
0.00 0.00 0.00 0.00 0.00 0.00 0.00 0.00 0.00 0.00 0.00 0.00 0.00 0.00 0.00 0.00 0.00 0.00 0.00 0.00 0.00 0.00 0.00 0.00 0.02 0.02 0.03 0.03 0.01 0.01 0.02 0.06 0.11
MSLP
997.95 998.45 998.75 999.39 1000.02 1000.65 1001.32 1002.17 1003.04 1003.93 1005.06 1005.93 1006.58 1007.26 1007.86 1008.40 1008.96 1009.64 1010.10 1010.60 1011.19 1011.62 1011.78 1012.31 1012.81 1013.20 1013.57 1013.88 1014.17 1014.60 1014.88 1015.06 1015.07
997.16 997.32 997.89 998.57 999.26 999.95 1000.60 1001.46 1002.22 1002.93 1004.12 1005.12 1005.97 1006.62 1007.32 1007.97 1008.57 1009.13 1009.63 1009.95 1010.34 1010.83 1011.27 1011.77 1012.36 1012.79 1013.31 1013.60 1013.91 1014.17 1014.37 1014.58 1014.65
996.60 996.55 997.18 998.16 998.72 999.30 1000.09 1000.79 1001.55 1002.48 1003.47 1004.52 1005.34 1006.14 1006.67 1007.29 1007.95 1008.44 1008.94 1009.49 1009.94 1010.33 1010.69 1011.23 1011.83 1012.22 1012.73 1012.99 1013.25 1013.57 1013.93 1014.13 1014.09
996.10 996.21 996.92 997.51 998.22 998.90 999.73 1000.39 1001.24 1002.27 1003.24 1004.21 1005.07 1005.71 1006.23 1006.84 1007.48 1007.96 1008.42 1008.98 1009.44 1009.83 1010.30 1010.76 1011.27 1011.57 1012.02 1012.40 1012.70 1012.97 1013.27 1013.38 1013.51
995.92 996.07 996.76 997.53 998.28 998.92 999.70 1000.35 1001.23 1002.02 1002.87 1003.81 1004.52 1005.20 1005.80 1006.38 1006.88 1007.45 1008.01 1008.55 1008.95 1009.33 1009.77 1010.17 1010.55 1011.03 1011.41 1011.75 1012.01 1012.24 1012.56 1012.80 1012.80
996.05 996.34 996.99 997.55 998.38 999.13 999.73 1000.36 1001.10 1001.87 1002.59 1003.35 1004.18 1004.85 1005.39 1006.00 1006.53 1007.06 1007.53 1008.01 1008.56 1008.95 1009.38 1009.80 1010.14 1010.50 1010.88 1011.17 1011.42 1011.68 1011.93 1012.14 1012.30
996.28 996.34 997.03 997.79 998.60 999.25 999.91 1000.49 1001.10 1001.84 1002.48 1002.97 1003.74 1004.40 1005.02 1005.65 1006.19 1006.73 1007.19 1007.48 1008.11 1008.62 1009.00 1009.46 1009.85 1010.18 1010.42 1010.70 1010.90 1011.15 1011.37 1011.57 1011.76
996.65 996.76 997.31 998.16 998.63 999.15 999.97 1000.66 1001.27 1001.82 1002.30 1002.86 1003.54 1004.11 1004.73 1005.36 1005.84 1006.28 1006.80 1007.29 1007.63 1008.08 1008.51 1008.88 1009.18 1009.52 1009.84 1010.05 1010.23 1010.35 1010.60 1010.94 1011.27
997.00 996.97 997.20 997.62 998.31 998.84 999.66 1000.38 1001.19 1001.85 1002.35 1002.84 1003.44 1004.06 1004.55 1005.24 1005.79 1006.24 1006.58 1006.89 1007.22 1007.56 1007.98 1008.43 1008.75 1009.04 1009.37 1009.60 1009.64 1009.69 1009.87 1010.21 1010.70
997.27 997.35 997.52 997.81 998.07 998.63 999.19 999.91 1000.67 1001.62 1002.27 1002.73 1003.42 1004.10 1004.56 1005.06 1005.54 1005.91 1006.16 1006.57 1006.99 1007.39 1007.69 1007.98 1008.29 1008.51 1008.68 1009.01 1009.28 1009.51 1009.65 1010.02 1010.49
997.58 997.42 997.73 997.80 998.54 998.74 998.99 999.62 1000.38 1001.11 1001.90 1002.70 1003.47 1004.11 1004.64 1005.02 1005.33 1005.73 1006.12 1006.67 1007.06 1007.44 1007.75 1007.98 1008.26 1008.53 1008.58 1008.79 1008.86 1008.93 1009.23 1009.72 1010.21
997.71 997.50 997.81 997.95 998.29 998.47 998.87 999.50 1000.16 1000.97 1001.83 1002.53 1003.34 1004.06 1004.57 1004.98 1005.33 1005.79 1006.22 1006.55 1006.84 1007.12 1007.53 1007.84 1008.03 1008.03 1008.29 1008.70 1008.91 1008.74 1008.70 1009.03 1009.67
997.69 998.09 998.12 998.15 998.40 998.27 998.90 999.67 1000.17 1000.97 1001.71 1002.36 1003.09 1003.55 1003.95 1004.40 1004.88 1005.41 1005.85 1006.09 1006.47 1006.82 1007.26 1007.81 1008.20 1008.52 1008.28 1008.32 1008.61 1008.85 1009.10 1009.17 1009.16
998.02 998.09 998.10 998.65 999.00 999.43 999.93 999.91 1000.17 1000.95 1001.61 1002.02 1002.22 1002.80 1003.34 1003.90 1004.24 1004.84 1005.30 1005.78 1006.28 1006.74 1007.47 1008.07 1008.53 1008.41 1008.15 1008.40 1008.49 1008.77 1008.81 1009.17 1009.43
997.70 998.46 998.57 999.26 999.80 1000.30 1000.59 1000.77 1001.03 1001.64 1002.08 1001.76 1001.93 1002.25 1002.84 1003.46 1003.94 1004.49 1004.85 1005.33 1005.96 1006.54 1006.71 1007.43 1007.97 1008.75 1008.70 1008.98 1008.68 1008.79 1009.00 1008.99 1009.13
998.41 999.06 999.48 999.59 1000.32 1000.99 1001.46 1001.64 1001.93 1002.29 1002.69 1002.40 1002.31 1002.67 1003.16 1003.57 1003.95 1004.46 1005.00 1005.61 1006.30 1006.84 1006.85 1007.16 1007.42 1008.10 1008.03 1007.93 1008.50 1009.01 1009.20 1008.91 1008.82
998.38 999.29 999.84 1000.11 1000.92 1001.68 1002.15 1002.28 1002.51 1002.75 1002.91 1003.06 1003.17 1003.39 1003.66 1004.00 1004.46 1004.92 1005.16 1005.59 1006.17 1006.58 1006.65 1006.95 1007.10 1007.73 1007.83 1008.04 1007.72 1007.75 1008.21 1009.14 1009.21
999.45 999.99 1000.24 1000.82 1001.48 1002.04 1002.42 1002.61 1002.92 1003.05 1003.19 1003.31 1003.56 1003.78 1004.09 1004.34 1004.75 1005.12 1005.51 1005.65 1005.87 1006.29 1006.61 1006.88 1007.14 1007.19 1007.36 1007.58 1007.53 1008.41 1008.49 1008.41 1008.59
999.89 1000.49 1001.10 1001.52 1001.98 1002.44 1002.71 1002.94 1003.21 1003.31 1003.39 1003.61 1003.86 1004.29 1004.61 1004.67 1004.81 1005.27 1005.52 1005.83 1006.21 1006.34 1006.52 1006.67 1006.82 1006.76 1006.84 1007.17 1007.42 1007.81 1007.67 1007.37 1007.58
1000.57 1001.40 1001.62 1002.13 1002.63 1002.86 1003.06 1003.31 1003.50 1003.52 1003.56 1003.86 1004.08 1004.42 1004.56 1004.67 1004.76 1005.00 1005.29 1005.58 1005.82 1006.13 1006.52 1006.83 1007.21 1007.46 1007.53 1007.67 1007.77 1007.79 1007.51 1007.40 1007.81
Thickness
5885 5883 5888 5885 5883 5881 5876 5872 5865 5859 5848 5839 5836 5830 5823 5818 5813 5806 5802 5799 5794 5791 5789 5786 5783 5779 5776 5773 5769 5766 5764 5763 5765
5883 5887 5888 5888 5889 5885 5878 5872 5869 5866 5856 5847 5839 5832 5825 5819 5813 5807 5802 5801 5799 5795 5792 5788 5783 5778 5775 5773 5771 5769 5767 5765 5764
5887 5892 5888 5884 5887 5888 5882 5879 5873 5868 5860 5849 5842 5834 5828 5821 5815 5811 5807 5802 5798 5796 5793 5789 5784 5781 5778 5776 5774 5771 5767 5765 5766
5889 5892 5889 5890 5890 5886 5886 5884 5875 5866 5859 5850 5841 5835 5828 5821 5815 5812 5809 5803 5800 5797 5794 5790 5786 5784 5781 5778 5776 5774 5770 5769 5768
5892 5895 5894 5890 5887 5886 5885 5880 5875 5867 5860 5852 5845 5837 5830 5823 5818 5814 5809 5804 5801 5799 5795 5793 5791 5787 5784 5781 5779 5777 5773 5770 5770
5887 5892 5891 5890 5888 5884 5882 5877 5873 5868 5863 5854 5847 5840 5834 5826 5819 5814 5810 5807 5802 5799 5796 5792 5790 5787 5784 5782 5780 5778 5776 5773 5771
5880 5886 5887 5883 5886 5882 5878 5874 5871 5865 5862 5858 5851 5844 5836 5827 5821 5815 5811 5810 5805 5800 5797 5792 5789 5787 5785 5782 5782 5779 5777 5775 5772
5874 5875 5877 5874 5877 5879 5874 5870 5867 5864 5861 5857 5852 5844 5836 5829 5825 5820 5814 5810 5807 5803 5799 5796 5793 5790 5787 5786 5784 5783 5780 5777 5774
5864 5868 5875 5876 5875 5879 5875 5870 5864 5862 5858 5854 5851 5842 5836 5831 5825 5820 5816 5812 5809 5805 5801 5797 5794 5791 5788 5785 5786 5786 5783 5780 5775
5860 5862 5863 5866 5872 5875 5876 5872 5867 5859 5856 5854 5846 5839 5836 5830 5826 5821 5818 5814 5808 5803 5799 5797 5794 5791 5789 5786 5785 5784 5781 5778 5774
5852 5863 5864 5865 5866 5870 5874 5873 5866 5862 5857 5849 5842 5835 5830 5827 5824 5820 5816 5808 5803 5799 5795 5791 5787 5785 5786 5784 5783 5784 5780 5777 5772
5851 5859 5862 5862 5863 5868 5872 5868 5864 5859 5851 5846 5837 5831 5826 5823 5819 5814 5809 5804 5799 5796 5793 5789 5786 5785 5782 5778 5776 5777 5779 5778 5772
5849 5851 5855 5855 5857 5863 5864 5860 5859 5851 5845 5840 5833 5830 5826 5823 5819 5811 5805 5802 5797 5794 5788 5781 5775 5771 5773 5774 5771 5767 5765 5766 5768
5843 5846 5848 5849 5849 5846 5844 5851 5851 5843 5840 5837 5839 5835 5828 5821 5818 5809 5805 5800 5793 5785 5772 5762 5755 5753 5756 5756 5760 5759 5758 5756 5757
5836 5835 5841 5840 5836 5832 5833 5835 5834 5828 5826 5834 5835 5831 5825 5818 5812 5807 5803 5796 5786 5769 5764 5757 5752 5744 5747 5747 5747 5745 5747 5747 5748
5826 5826 5826 5831 5825 5819 5820 5821 5820 5814 5815 5820 5820 5817 5812 5809 5806 5800 5794 5785 5775 5768 5765 5757 5755 5743 5742 5743 5742 5736 5730 5737 5740
5820 5817 5818 5820 5814 5807 5805 5809 5809 5808 5807 5807 5803 5800 5797 5794 5790 5784 5782 5777 5771 5763 5759 5752 5748 5739 5742 5736 5738 5733 5726 5727 5728
5803 5803 5806 5804 5800 5798 5796 5798 5796 5798 5798 5797 5791 5788 5785 5782 5777 5774 5770 5770 5766 5758 5751 5744 5738 5735 5734 5732 5729 5721 5723 5725 5723
5792 5791 5792 5790 5789 5787 5787 5788 5786 5786 5788 5785 5780 5775 5770 5769 5767 5764 5762 5758 5755 5751 5744 5736 5732 5731 5730 5727 5724 5719 5719 5720 5719
5781 5777 5778 5776 5773 5774 5775 5774 5773 5775 5776 5773 5769 5765 5763 5760 5757 5754 5751 5750 5747 5742 5738 5729 5722 5715 5712 5708 5710 5708 5710 5712 5710